[[{"header":{"parameterUnit":"m.s-1","parameterCategory":1,"la1":30.2991,"la2":30.254,"lo1":-89.0895,"lo2":-89.0444,"dy":0.0017,"dx":0.0017,"nx":28,"ny":28,"refTime":"2023-11-08T03:00:00:Z","depth":0,"parameterNumber":2,"parameterNumberName":"U-component_of_WINDS"},"data":[0,0,0,0,0,0,0,0,0,0,0,0,0,0,0,0,0,0,0,0,0,0,0,0,0,0,0,0,0,0,0,0,0,0,0,0,0,0,0,0,0,0,0,0,0,0,0,0,0,0,0,0,0,0,0,0,0,0,0.4298,0.4298,0,0.4373,0.4374,0.4375,0.4371,0.4369,0.4368,0.4367,0.4449,0.4452,0.4455,0,0,0,0,0,0,0,0,0,0,0,0,0,0.4152,0.4154,0.4298,0.4298,0.4299,0.4373,0.4374,0.4375,0.4371,0.4369,0.4368,0.4367,0.4448,0.4452,0.4455,0,0,0,0,0,0,0,0,0,0,0,0,0,0.422,0.4155,0.4297,0.4306,0.4307,0.4373,0.4374,0.4376,0.4371,0.4369,0.4368,0.4366,0.4446,0.4451,0.4456,0.4519,0,0,0.4471,0.4473,0,0,0,0,0,0,0,0,0.4216,0.4225,0.4304,0.4305,0.4307,0.4361,0.4353,0.4424,0.4371,0.4347,0.4367,0.4365,0.4421,0.4428,0.4446,0.4523,0.4527,0.4471,0.4474,0.4476,0.4477,0,0,0,0,0,0,0,0.4211,0.4222,0.4328,0.4305,0.4307,0.4307,0.4315,0.4366,0.4393,0.4349,0.4349,0.4358,0.4422,0.4441,0.4448,0.4528,0.4471,0.4475,0.4478,0.448,0.466,0.4662,0,0,0,0,0,0,0.4204,0.4218,0.4325,0.433,0.4257,0.4311,0.432,0.4345,0.4392,0.4398,0.4359,0.4357,0.4434,0.4442,0.4451,0.4528,0.4476,0.4481,0.4483,0.4659,0.4661,0.4663,0,0,0,0,0,0,0.4201,0.4214,0.4322,0.4274,0.4288,0.4315,0.4344,0.4348,0.4367,0.44,0.4405,0.4374,0.4433,0.4444,0.4502,0.4531,0.4483,0.4487,0.4656,0.4659,0.4662,0.4683,0,0,0,0,0,0,0.4197,0.4213,0.4236,0.4275,0.429,0.4371,0.4346,0.435,0.4375,0.4373,0.4415,0.442,0.4432,0.4495,0.4507,0.4536,0.4491,0.4654,0.4658,0.4661,0.4679,0.4686,0.4691,0,0,0,0,0,0.4192,0.424,0.4238,0.4251,0.432,0.4373,0.4382,0.4394,0.4377,0.4402,0.4423,0.4419,0.4525,0.4501,0.4514,0.4546,0.4652,0.4657,0.4661,0.4677,0.4685,0.4691,0,0,0,0,0,0,0.4206,0.4245,0.4243,0.4305,0.4335,0.4372,0.4403,0.4402,0.4439,0.4436,0.445,0.446,0.4518,0.4538,0.451,0.4609,0.4587,0.4594,0.4594,0.4602,0.4608,0.4602,0.4495,0,0,0,0,0,0.4216,0.4255,0.4287,0.4339,0.4354,0.4376,0.4399,0.4406,0.4439,0.4452,0.4477,0.451,0.4551,0.4577,0.4617,0.4682,0.4691,0.471,0.4716,0.4721,0.4727,0.4763,0.4772,0.4677,0.4677,0.4677,0,0,0.4238,0.4264,0.4288,0.4342,0.4367,0.4407,0.4387,0.4431,0.4461,0.4459,0.4515,0.4534,0.4572,0.4634,0.4662,0.4652,0.4755,0.4726,0.473,0.4734,0.4768,0.4777,0.4785,0.468,0.4679,0.4679,0,0,0.4299,0.4322,0.4367,0.4392,0.4428,0.4443,0.4453,0.449,0.4502,0.4558,0.4558,0.4594,0.4664,0.4691,0.4714,0.4783,0.4782,0.4796,0.4827,0.4862,0.4869,0.4876,0.4901,0.491,0.4802,0.4802,0.4802,0,0.4322,0.4381,0.4391,0.4435,0.4459,0.4457,0.4504,0.4527,0.4576,0.4593,0.458,0.4667,0.4693,0.4761,0.4777,0.4796,0.4809,0.4792,0.4867,0.4874,0.488,0.4904,0.4914,0.4803,0.4803,0.4803,0.4803,0,0.4408,0.4449,0.4481,0.4526,0.4554,0.4599,0.4616,0.4644,0.4647,0.4663,0.472,0.475,0.4795,0.4812,0.4817,0.4881,0.4873,0.4864,0.4841,0.4891,0.4914,0.4923,0.4806,0.4805,0.4805,0.4804,0,0,0.448,0.4529,0.4541,0.4561,0.4601,0.4634,0.4679,0.4721,0.4744,0.4778,0.4816,0.4875,0.4866,0.4892,0.4899,0.493,0.4983,0.4917,0.4918,0.4928,0.5056,0.5063,0.5073,0.4982,0.4984,0.4985,0.5053,0,0.4545,0.4623,0.4633,0.4703,0.4741,0.474,0.4779,0.4808,0.4824,0.486,0.4878,0.4919,0.4904,0.492,0.495,0.497,0.5009,0.4966,0.5019,0.5021,0.501,0.5085,0.5093,0.5156,0.5062,0.5063,0.5064,0,0.4631,0.4665,0.4738,0.4772,0.4789,0.4824,0.4863,0.4897,0.493,0.494,0.4968,0.4972,0.5019,0.4994,0.506,0.503,0.5052,0.5065,0.5068,0.5074,0.5046,0.5094,0.5176,0.5185,0.5079,0.5077,0.5076,0,0.4677,0.4741,0.4793,0.481,0.4851,0.4876,0.4894,0.4925,0.495,0.4986,0.5002,0.5043,0.5065,0.5097,0.5112,0.5092,0.5177,0.5153,0.5187,0.5186,0.5205,0.5204,0.5292,0.5219,0.5219,0.5218,0.5218,0,0.4748,0.4793,0.4814,0.4846,0.4896,0.4908,0.4958,0.4975,0.5003,0.5039,0.5041,0.5075,0.5092,0.5129,0.5141,0.5194,0.5204,0.5213,0.5216,0.5214,0.5212,0.5229,0.5225,0.5221,0.522,0.522,0.5219,0,0.4809,0.4824,0.4881,0.4914,0.4923,0.4959,0.4988,0.502,0.5035,0.508,0.5092,0.5116,0.5159,0.5177,0.5231,0.5239,0.5299,0.5299,0.5288,0.5289,0.5321,0.5318,0.5424,0.5438,0.5355,0.5355,0.5356,0,0.4853,0.4888,0.4924,0.4948,0.4966,0.5005,0.503,0.5042,0.5068,0.5108,0.5135,0.5178,0.5213,0.5283,0.5306,0.5347,0.5347,0.5381,0.5354,0.535,0.5348,0.5346,0.535,0.5387,0.5388,0.5388,0.5389,0,0.4931,0.4937,0.4972,0.501,0.5039,0.507,0.51,0.512,0.5137,0.5166,0.521,0.5237,0.5291,0.5334,0.5376,0.5396,0.5396,0.5397,0.5407,0.5405,0.5397,0.5402,0.5302,0.5395,0.5394,0.5394,0.5394,0.5393,0.4985,0.5016,0.5046,0.5085,0.5108,0.5136,0.5167,0.5185,0.5221,0.5265,0.5271,0.5317,0.535,0.5406,0.5428,0.5465,0.5457,0.5471,0.5475,0.5478,0.548,0.5391,0.5473,0.5473,0.5473,0.5473,0.5473,0,0.5064,0.5082,0.5118,0.5159,0.519,0.5185,0.5218,0.5245,0.5285,0.5315,0.5349,0.5399,0.544,0.5466,0.5508,0.5533,0.5534,0.5544,0.5542,0.5547,0.5486,0.5473,0.5542,0.5542,0.5542,0.5542,0.5542,0.5542,0.5108,0.5159,0.5168,0.523,0.5249,0.5294,0.5313,0.5339,0.5362,0.5418,0.5452,0.5467,0.5496,0.5539,0.5577,0.5584,0.56,0.561,0.5616,0.5559,0.5551,0.5544,0.5533,0.5613,0.5613,0.5674,0.5675,0.5675]},{"header":{"parameterUnit":"m.s-1","parameterCategory":1,"la1":30.2991,"la2":30.254,"lo1":-89.0895,"lo2":-89.0444,"dy":0.0017,"dx":0.0017,"nx":28,"ny":28,"refTime":"2023-11-08T03:00:00:Z","depth":0,"parameterNumber":3,"parameterNumberName":"V-component_of_WINDS"},"data":[0,0,0,0,0,0,0,0,0,0,0,0,0,0,0,0,0,0,0,0,0,0,0,0,0,0,0,0,0,0,0,0,0,0,0,0,0,0,0,0,0,0,0,0,0,0,0,0,0,0,0,0,0,0,0,0,0,0,1.318,1.318,0,1.3173,1.3173,1.3173,1.3116,1.3115,1.3113,1.3112,1.3107,1.3108,1.3109,0,0,0,0,0,0,0,0,0,0,0,0,0,1.3148,1.3149,1.318,1.318,1.318,1.3173,1.3173,1.3173,1.3116,1.3115,1.3113,1.3111,1.3106,1.3108,1.3109,0,0,0,0,0,0,0,0,0,0,0,0,0,1.3154,1.3149,1.318,1.3151,1.3149,1.3173,1.3173,1.3173,1.3117,1.3115,1.3113,1.3111,1.3106,1.3108,1.3109,1.3162,0,0,1.3115,1.3116,0,0,0,0,0,0,0,0,1.3154,1.3155,1.3156,1.3153,1.315,1.3143,1.3159,1.3169,1.3117,1.3129,1.3112,1.311,1.3121,1.3121,1.3124,1.3162,1.3162,1.3115,1.3116,1.3117,1.3117,0,0,0,0,0,0,0,1.3153,1.3155,1.3177,1.3156,1.3152,1.3139,1.3138,1.3161,1.3137,1.3128,1.3124,1.3123,1.3119,1.3123,1.3124,1.3162,1.3115,1.3116,1.3117,1.3118,1.3243,1.3245,0,0,0,0,0,0,1.3157,1.3155,1.3178,1.3177,1.3147,1.3142,1.314,1.3148,1.3136,1.3133,1.3125,1.3121,1.3121,1.3122,1.3124,1.3185,1.3117,1.3118,1.3119,1.324,1.3243,1.3245,0,0,0,0,0,0,1.3156,1.3159,1.3178,1.3165,1.3166,1.3144,1.3154,1.3149,1.3152,1.3134,1.313,1.3134,1.3119,1.3121,1.3153,1.3184,1.3119,1.3121,1.3238,1.3241,1.3244,1.3308,0,0,0,0,0,0,1.3155,1.3159,1.3179,1.3166,1.3167,1.3207,1.3156,1.315,1.3155,1.315,1.3141,1.3138,1.3118,1.3151,1.3155,1.3185,1.3122,1.3235,1.3239,1.3243,1.3303,1.3313,1.3322,0,0,0,0,0,1.3154,1.3197,1.318,1.3183,1.3191,1.3209,1.321,1.3185,1.3158,1.3178,1.3166,1.3138,1.318,1.3154,1.3158,1.319,1.3233,1.3238,1.3243,1.3299,1.3311,1.3322,0,0,0,0,0,0,1.3215,1.3195,1.3175,1.3215,1.3214,1.3199,1.3223,1.3199,1.3206,1.3201,1.3171,1.317,1.3206,1.3201,1.3173,1.3241,1.3201,1.3208,1.3243,1.3254,1.3264,1.3265,1.3123,0,0,0,0,0,1.3232,1.3248,1.323,1.3267,1.3267,1.3246,1.3253,1.3234,1.3232,1.3231,1.3222,1.3222,1.3235,1.3244,1.3255,1.3302,1.33,1.3326,1.3335,1.3343,1.3349,1.3374,1.3386,1.3262,1.3262,1.3262,0,0,1.327,1.3261,1.3273,1.3279,1.3276,1.3294,1.3246,1.3266,1.3279,1.3235,1.3264,1.3257,1.3255,1.3295,1.3312,1.3292,1.3383,1.335,1.3356,1.3358,1.3381,1.3393,1.3403,1.3266,1.3265,1.3264,0,0,1.3346,1.3341,1.3371,1.3369,1.3365,1.335,1.3358,1.3347,1.334,1.3369,1.3336,1.3352,1.3375,1.3375,1.3378,1.3455,1.343,1.346,1.3509,1.3534,1.3544,1.3552,1.3581,1.3592,1.3465,1.3466,1.3466,0,1.3393,1.3418,1.339,1.3413,1.3417,1.3377,1.3408,1.3408,1.3408,1.3412,1.3389,1.3417,1.3413,1.3453,1.3472,1.3475,1.3484,1.3461,1.3545,1.3553,1.356,1.3587,1.3598,1.3469,1.3469,1.3468,1.3468,0,1.3477,1.3494,1.3519,1.352,1.3527,1.3554,1.3531,1.3542,1.3522,1.351,1.3541,1.3534,1.3543,1.3551,1.3533,1.3589,1.3576,1.355,1.351,1.3576,1.3601,1.3611,1.3475,1.3473,1.3472,1.3471,0,0,1.3591,1.3576,1.3586,1.3586,1.3579,1.3592,1.3618,1.3626,1.3636,1.3638,1.3659,1.3679,1.3655,1.3658,1.364,1.3661,1.3724,1.3632,1.3631,1.365,1.3787,1.3808,1.382,1.3707,1.3709,1.371,1.3787,0,1.3666,1.3708,1.3684,1.373,1.3747,1.3709,1.3731,1.3729,1.3719,1.3732,1.372,1.3736,1.3701,1.3703,1.3723,1.3713,1.3752,1.3707,1.3728,1.3729,1.3731,1.3833,1.3855,1.3927,1.3797,1.3798,1.3799,0,1.3758,1.3764,1.3811,1.3801,1.3807,1.3828,1.3834,1.3847,1.3844,1.3835,1.3839,1.3815,1.3841,1.3801,1.3836,1.3806,1.3813,1.3809,1.3811,1.3813,1.3769,1.3838,1.395,1.3961,1.3814,1.3813,1.3812,0,1.3839,1.3857,1.3888,1.389,1.3878,1.3894,1.389,1.3886,1.3892,1.3898,1.3902,1.3911,1.3916,1.3924,1.3904,1.3876,1.3942,1.39,1.3936,1.3937,1.3952,1.3952,1.4068,1.3956,1.3955,1.3955,1.3955,0,1.3925,1.3956,1.3924,1.3944,1.3978,1.395,1.3984,1.3976,1.3973,1.3991,1.3958,1.3976,1.3947,1.3962,1.3946,1.3978,1.3981,1.3975,1.397,1.3978,1.3979,1.3983,1.3978,1.3958,1.3957,1.3957,1.3956,0,1.402,1.4,1.4032,1.4019,1.4016,1.4042,1.4031,1.4049,1.4036,1.4059,1.4063,1.4043,1.4059,1.4039,1.4053,1.4043,1.4087,1.4074,1.4087,1.4084,1.4122,1.4119,1.4245,1.4261,1.4138,1.4139,1.414,0,1.4077,1.41,1.4089,1.4099,1.4097,1.4112,1.4119,1.4093,1.4101,1.4101,1.4119,1.4132,1.4141,1.4168,1.4156,1.4167,1.4155,1.4198,1.4157,1.4164,1.4157,1.4156,1.4159,1.4207,1.4209,1.421,1.4211,0,1.418,1.4169,1.418,1.4188,1.4197,1.4202,1.4204,1.4214,1.4186,1.4198,1.4213,1.422,1.4235,1.4249,1.4256,1.4253,1.4228,1.4224,1.4233,1.4242,1.4249,1.4247,1.4112,1.4222,1.4221,1.422,1.4219,1.4219,1.4259,1.4278,1.4273,1.4287,1.4286,1.4289,1.4305,1.4294,1.4307,1.4316,1.43,1.432,1.4318,1.4325,1.4325,1.4341,1.4322,1.4335,1.4339,1.4343,1.4349,1.4246,1.4342,1.4342,1.4341,1.4341,1.4341,0,1.4361,1.4356,1.4369,1.4373,1.4384,1.4359,1.436,1.4371,1.4389,1.4389,1.4398,1.4417,1.443,1.4419,1.443,1.4445,1.4434,1.4449,1.4448,1.4448,1.4364,1.4356,1.4458,1.4458,1.4458,1.4458,1.4458,1.4458,1.4416,1.4446,1.4435,1.4466,1.4461,1.448,1.4483,1.4486,1.4486,1.4508,1.4519,1.4511,1.4506,1.4517,1.4529,1.4525,1.4531,1.455,1.4543,1.4465,1.4454,1.4443,1.4435,1.4552,1.4552,1.4625,1.4626,1.4627]}]]